Weather in Igra

Russia / Udmurt Republic     57°32′24″N   53°05′10″E
temp.,
°C
wind,
m/s
gust,
m/s
humid.,
%
clouds,
%
prec.,
mm/h
press.,
hPa
HPBL,
m
16 june, wed
wed1601:00+15sw229551 0.0 101448
04:00+15sse11945 0.0 101312
07:00+20sse398121 0.0 1012276
10:00+26sse465235 0.0 1011812
13:00+29sse583828 0.0 10081815
16:00+29s473514 0.0 10072330
19:00+25ssw596530 0.6 1004898
22:00+17nw2595100 7.4 1006154
17 june, thu
thu1701:00+15nw2799100 3.4 1006228
04:00+14nnw51197100 3.4 1009604
07:00+13nnw512875 0.0 1011614
10:00+18nnw58485 0.0 10121478
13:00+20nw68375 0.0 10132322
16:00+19nw6844100 0.0 10142567
19:00+16nw585969 0.0 10151197
22:00+11nnw3107849 0.0 1018465
18 june, fri
fri1801:00+9nw311812 0.0 1019473
04:00+8nw411850 0.0 1020406
07:00+11nnw47733 0.0 1022586
10:00+16n455510 0.0 10231312
13:00+19n344257 0.0 10232104
16:00+19nnw354098 0.0 10232138
19:00+18wnw465315 0.0 1023838
22:00+12w397859 0.0 1024170
19 june, sat
sat1901:00+11w388178 0.0 1024159
04:00+11wsw31079100 0.0 1024227
07:00+15wsw4116491 0.0 1023374
10:00+20wsw595322 0.0 1021774
13:00+25w69445 0.0 10191893
16:00+26wnw6105073 0.0 10182140
19:00+24wnw512613 0.0 10171650
22:00+20w413663 0.0 1017489
20 june, sun
sun2001:00+17w313843 0.0 1017311
04:00+16wnw311845 0.0 1018272
07:00+20nw37705 0.0 1019296
10:00+25nw46540 0.0 10191046
13:00+28nw574741 0.0 10192002
16:00+25nnw3762100 0.0 1019613
19:00+23nw2376100 0.0 101973
22:00+19sw11880 0.0 102011